Date String (YYYY-MM-DD hh:mm:ss) UTC,Instrument flags,absolute air pressure of the measurement (hPa),sample flow rate (lpm),inlet stack bypass flow (lpm),air temperature of the measurement (°C),ambient temperature measured by the external sensor (°C),aerosol sample conditioner tube jacket temperature (°C),OPC LED temperature (°C),internal box temperature (°C),relative humidity of the measurement (%),span deviation,mass concentration of particles derived from Lorenz-Mie calculation of OPC scattering (μg/m³),mass concentration of particles derived from Lorenz-Mie calculation of OPC scattering (μg/m³),mass concentration of particles derived from Lorenz-Mie calculation of OPC scattering (μg/m³)
DateTimeUTC,F1_M11,P_M11,Q1_M11,Q2_M11,T1_M11,T2_M11,T3_M11,T4_M11,T5_M11,U1_M11,ZSPAN_M11,X0_M11,X2_M11,X1_M11
2024-02-22 05:00:00,SystemResetWarning,0826.0,4.99,000.00,023.0,022.2,000.0,031.6,024.6,16.5,0000.0,0008.10,0002.90,0001.88
2024-02-22 05:01:00,SystemResetWarning,0826.0,4.99,000.00,023.0,022.2,000.0,031.6,024.6,16.5,0000.0,0008.55,0002.83,0001.86
2024-02-22 05:02:00,SystemResetWarning,0826.0,5.01,000.00,023.0,022.2,000.0,031.6,024.6,16.5,0000.0,0008.62,0002.76,0001.84
2024-02-22 05:03:00,SystemResetWarning,0826.0,5.01,000.00,022.9,022.2,000.0,031.6,024.6,16.5,0000.0,0008.83,0002.70,0001.81
2024-02-22 05:04:00,SystemResetWarning,0826.0,5.00,000.00,022.9,022.1,000.0,031.5,024.6,16.6,0000.0,0008.90,0002.70,0001.79
2024-02-22 05:05:00,SystemResetWarning,0826.0,5.00,000.00,022.9,022.1,000.0,031.5,024.5,16.7,0000.0,0009.03,0002.67,0001.77
2024-02-22 05:06:00,SystemResetWarning,0826.1,4.99,000.00,022.9,022.1,000.0,031.5,024.5,16.7,0000.0,0008.95,0002.60,0001.74
2024-02-22 05:07:00,SystemResetWarning,0826.1,4.99,000.00,022.9,022.1,000.0,031.5,024.6,16.8,0000.0,0008.89,0002.54,0001.73
2024-02-22 05:08:00,SystemResetWarning,0826.1,5.00,000.00,022.8,022.1,000.0,031.5,024.5,16.8,0000.0,0008.63,0002.53,0001.73
2024-02-22 05:09:00,SystemResetWarning,0826.1,5.00,000.00,022.8,022.0,000.0,031.4,024.5,16.9,0000.0,0008.09,0002.47,0001.71
2024-02-22 05:10:00,SystemResetWarning,0826.2,5.00,000.00,022.8,022.0,000.0,031.4,024.4,16.9,0000.0,0008.18,0002.44,0001.70
2024-02-22 05:11:00,SystemResetWarning,0826.2,5.00,000.00,022.8,022.0,000.0,031.4,024.4,16.9,0000.0,0008.34,0002.39,0001.69
2024-02-22 05:12:00,SystemResetWarning,0826.2,5.01,000.00,022.8,022.0,000.0,031.4,024.4,16.9,0000.0,0007.96,0002.41,0001.68
2024-02-22 05:13:00,SystemResetWarning,0826.2,5.00,000.00,022.7,022.0,000.0,031.4,024.4,16.9,0000.0,0007.37,0002.39,0001.67
2024-02-22 05:14:00,SystemResetWarning,0826.2,4.99,000.00,022.7,022.0,000.0,031.3,024.4,16.9,0000.0,0006.46,0002.40,0001.66
2024-02-22 05:15:00,SystemResetWarning,0826.2,4.99,000.00,022.7,022.0,000.0,031.3,024.5,16.9,0000.0,0006.01,0002.36,0001.66
2024-02-22 05:16:00,SystemResetWarning,0826.3,5.01,000.00,022.7,022.0,000.0,031.3,024.5,16.9,0000.0,0004.99,0002.30,0001.66
2024-02-22 05:17:00,SystemResetWarning,0826.3,5.01,000.00,022.7,022.0,000.0,031.3,024.5,16.9,0000.0,0006.17,0002.27,0001.65
2024-02-22 05:18:00,SystemResetWarning,0826.3,5.01,000.00,022.7,022.0,000.0,031.3,024.5,16.9,0000.0,0006.85,0002.25,0001.65
2024-02-22 05:19:00,SystemResetWarning,0826.4,5.00,000.00,022.7,022.0,000.0,031.3,024.5,17.0,0000.0,0006.81,0002.22,0001.63
2024-02-22 05:20:00,SystemResetWarning,0826.4,4.99,000.00,022.7,022.0,000.0,031.3,024.5,17.0,0000.0,0007.40,0002.18,0001.61
2024-02-22 05:21:00,SystemResetWarning,0826.4,5.01,000.00,022.7,022.0,000.0,031.3,024.5,17.0,0000.0,0007.55,0002.16,0001.60
2024-02-22 05:22:00,SystemResetWarning,0826.4,5.01,000.00,022.7,022.0,000.0,031.3,024.5,17.1,0000.0,0007.15,0002.17,0001.60
2024-02-22 05:23:00,SystemResetWarning,0826.4,4.99,000.00,022.7,022.0,000.0,031.2,024.5,17.1,0000.0,0007.17,0002.11,0001.58
2024-02-22 05:24:00,SystemResetWarning,0826.3,4.99,000.00,022.7,022.0,000.0,031.2,024.5,17.1,0000.0,0007.97,0002.06,0001.58
2024-02-22 05:25:00,SystemResetWarning,0826.3,5.00,000.00,022.7,022.0,000.0,031.2,024.5,17.2,0000.0,0008.27,0002.03,0001.57
2024-02-22 05:26:00,SystemResetWarning,0826.3,5.01,000.00,022.6,021.9,000.0,031.2,024.4,17.3,0000.0,0008.40,0002.12,0001.56
2024-02-22 05:27:00,SystemResetWarning,0826.2,5.00,000.00,022.6,021.9,000.0,031.2,024.4,17.2,0000.0,0008.39,0002.12,0001.56
2024-02-22 05:28:00,SystemResetWarning,0826.2,5.01,000.00,022.6,021.8,000.0,031.2,024.3,17.2,0000.0,0007.93,0002.12,0001.55
2024-02-22 05:29:00,SystemResetWarning,0826.2,5.00,000.00,022.6,021.8,000.0,031.2,024.3,17.3,0000.0,0007.22,0002.08,0001.53
2024-02-22 05:30:00,SystemResetWarning,0826.3,5.00,000.00,022.6,021.8,000.0,031.2,024.3,17.3,0000.0,0007.10,0002.05,0001.52
2024-02-22 05:31:00,SystemResetWarning,0826.2,5.00,000.00,022.5,021.7,000.0,031.1,024.2,17.4,0000.0,0006.66,0002.05,0001.51
2024-02-22 05:32:00,SystemResetWarning,0826.3,5.00,000.00,022.5,021.7,000.0,031.1,024.2,17.5,0000.0,0006.01,0002.02,0001.49
2024-02-22 05:33:00,SystemResetWarning,0826.2,5.00,000.00,022.5,021.6,000.0,031.1,024.2,17.6,0000.0,0005.86,0001.97,0001.47
2024-02-22 05:34:00,SystemResetWarning,0826.3,5.00,000.00,022.5,021.6,000.0,031.1,024.1,17.7,0000.0,0005.66,0001.99,0001.45
2024-02-22 05:35:00,SystemResetWarning,0826.3,5.00,000.00,022.4,021.6,000.0,031.0,024.1,17.6,0000.0,0004.49,0002.00,0001.43
2024-02-22 05:36:00,SystemResetWarning,0826.3,5.00,000.00,022.4,021.6,000.0,031.0,024.1,17.5,0000.0,0004.40,0002.00,0001.42
2024-02-22 05:37:00,SystemResetWarning,0826.4,5.00,000.00,022.4,021.6,000.0,031.0,024.1,17.6,0000.0,0005.71,0001.94,0001.40
2024-02-22 05:38:00,SystemResetWarning,0826.4,5.00,000.00,022.4,021.6,000.0,031.0,024.1,17.6,0000.0,0005.87,0001.94,0001.39
2024-02-22 05:39:00,SystemResetWarning,0826.4,5.00,000.00,022.4,021.6,000.0,031.0,024.1,17.6,0000.0,0005.82,0001.94,0001.40
2024-02-22 05:40:00,SystemResetWarning,0826.4,5.01,000.00,022.3,021.6,000.0,031.0,024.1,17.7,0000.0,0005.79,0001.94,0001.39
2024-02-22 05:41:00,SystemResetWarning,0826.4,5.01,000.00,022.3,021.6,000.0,031.0,024.1,17.8,0000.0,0005.81,0001.93,0001.38
2024-02-22 05:42:00,SystemResetWarning,0826.4,5.00,000.00,022.3,021.6,000.0,031.0,024.1,17.8,0000.0,0005.68,0001.92,0001.37
2024-02-22 05:43:00,SystemResetWarning,0826.4,5.00,000.00,022.3,021.5,000.0,030.9,024.0,17.8,0000.0,0005.92,0001.97,0001.37
2024-02-22 05:44:00,SystemResetWarning,0826.4,5.00,000.00,022.3,021.5,000.0,030.9,024.0,18.0,0000.0,0006.29,0002.04,0001.38
2024-02-22 05:45:00,SystemResetWarning,0826.5,5.00,000.00,022.3,021.5,000.0,030.9,024.0,18.2,0000.0,0006.29,0002.04,0001.39
2024-02-22 05:46:00,SystemResetWarning,0826.5,5.00,000.00,022.2,021.5,000.0,030.9,024.0,18.3,0000.0,0006.30,0002.04,0001.40
2024-02-22 05:47:00,SystemResetWarning,0826.5,5.00,000.00,022.2,021.5,000.0,030.9,024.0,18.4,0000.0,0006.18,0002.06,0001.40
2024-02-22 05:48:00,SystemResetWarning,0826.4,5.00,000.00,022.2,021.5,000.0,030.8,024.0,18.4,0000.0,0004.36,0002.04,0001.41
2024-02-22 05:49:00,SystemResetWarning,0826.4,5.00,000.00,022.2,021.5,000.0,030.8,023.9,18.4,0000.0,0004.08,0002.02,0001.42
2024-02-22 05:50:00,SystemResetWarning,0826.4,5.00,000.00,022.2,021.4,000.0,030.8,023.9,18.5,0000.0,0004.40,0002.02,0001.41
2024-02-22 05:51:00,SystemResetWarning,0826.4,4.99,000.00,022.2,021.4,000.0,030.8,023.8,18.5,0000.0,0004.56,0002.03,0001.41
2024-02-22 05:52:00,SystemResetWarning,0826.4,5.00,000.00,022.1,021.4,000.0,030.8,023.8,18.5,0000.0,0005.89,0002.07,0001.42
2024-02-22 05:53:00,SystemResetWarning,0826.5,5.00,000.00,022.1,021.3,000.0,030.7,023.7,18.5,0000.0,0006.06,0002.07,0001.43
2024-02-22 05:54:00,SystemResetWarning,0826.5,5.00,000.00,022.1,021.3,000.0,030.7,023.7,18.5,0000.0,0005.79,0002.04,0001.44
2024-02-22 05:55:00,SystemResetWarning,0826.5,5.00,000.00,022.1,021.2,000.0,030.7,023.6,18.5,0000.0,0005.53,0002.02,0001.44
2024-02-22 05:56:00,SystemResetWarning,0826.4,4.99,000.00,022.0,021.2,000.0,030.7,023.6,18.5,0000.0,0005.71,0002.04,0001.43
2024-02-22 05:57:00,SystemResetWarning,0826.5,5.00,000.00,022.0,021.2,000.0,030.6,023.6,18.5,0000.0,0005.55,0002.03,0001.43
2024-02-22 05:58:00,SystemResetWarning,0826.6,5.00,000.00,022.0,021.2,000.0,030.6,023.6,18.3,0000.0,0005.54,0002.03,0001.44
2024-02-22 05:59:00,SystemResetWarning,0826.6,5.00,000.00,022.0,021.2,000.0,030.6,023.6,18.3,0000.0,0007.05,0002.03,0001.43
